COSMOS 1375 DEB, 17804

Orbit data source: Space-Track

COSMOS 1375 DEB, 17804 is space debris in LEO originally from a launch on Sun, 06 Jun 1982 UTC launched from the Plesetsk Missile And Space Complex (PKMTR). Debris objects in space refer to the collection of defunct objects orbiting the Earth. Examples of debris include non-operational satellites, rocket bodies, and fragments generated from explosions, collisions, or faulty payload assembly.

Loading next visibility...
Identifier
17804, 1982-055AW
Orbit
LEO
Country
Flag of CISCIS
Related business
Manufacturer
Unknown
Mission
Spacecraft
Bus & Motor
Unknown
Mass
Unknown
Launch date (UTC)
1982-06-06 (44 years ago)
Launch vehicle
Unknown
Launch site
Plesetsk Missile And Space Complex (PKMTR)
Object type
Payload
Rocket body
Debris
Shape & HBR
Unknown shape, 0.1 m
Radar Cross Section
Medium (>0.1 m² and <1 m²)

Expand to show TLE details & history
Last TLE update: 2 days ago

TLE from 2 days ago
0 COSMOS 1375 DEB
1 17804U 82055AW  26171.29757645  .00001034  00000-0  70460-3 0  9990
2 17804  65.8160 346.8989 0022491 231.3119 189.0997 14.04164459 57882
Epoch: 2026-06-20T07:08Z
TLE epoch observation values (Epoch: 2026-06-20T07:08:30.605Z)
Latitude
52.58116°
Longitude
6.98236°
Altitude
903.164 km
Speed
7.398 km/s
True Right ascension
01h 30m 29s
True Declination
52° 25' 06"
Sunlit
Object was in daylight at epoch
Visualization orbit readout
Latitude
Unknown
Longitude
Unknown
Altitude
Unknown
Speed
Unknown
Apparent Right ascension
Unknown
Apparent Declination
Unknown
Sunlit
N/A
Visualization observer readout
Local Sidereal Time
02:00:09
Azimuth
Unknown
Elevation
Unknown
Doppler factor
Unknown
Orbital elements
Apogee altitude
894.228 km
Perigee altitude
861.589 km
Semi-major axis
7,256.045 km
Eccentricity
0.00225
Inclination
65.816°
RAAN
346.8989°
Arg. of periapsis
231.3119°
True anomaly
189.05905°
Mean anomaly
189.0997°
Eccentric anomaly
189.07936°
Mean motion
3.5115 °/min
Orbital period
102.52 mins
BSTAR
0.0007046
Loading maneuver chart data...
Computing Atmospheric mass density...
Loading historical data...
Loading historical data...
Loading historical data...
Loading historical data...
Loading historical data...
Loading historical data...
Loading historical data...

Documentation

Showing up to 5 results
|